Regional Weather Roundup
Issued by NWS Midland/Odessa, TX

Skip options and go directly to product.
Home | Oldest Version | Previous Version | Current Version | All | Text Only | Save Text | Print | Product List | Glossary On

Skip product version selection by date and time.   
483
ASUS44 KMAF 310410
RWRMAF
MIDLAND AREA WEATHER ROUNDUP
NATIONAL WEATHER SERVICE MIDLAND TX
1100 PM CDT TUE AUG 30 2016

...IN SOUTHWEST TEXAS AND SOUTHEAST NEW MEXICO...

CITY           SKY/WX    TMP DP  RH WIND       PRES   REMARKS
ALPINE         CLOUDY    67  65  94 NE6       30.27R
ANDREWS        CLOUDY    68  68 100 E14       30.20R
ARTESIA        LGT RAIN  66  66 100 N7        30.21S
BIG SPRING     CLOUDY    78  67  68 E12       30.16R
CARLSBAD       MOCLDY    69  66  90 N8        30.18R
DRYDEN           N/A     73  71  93 CALM      30.08R
FORT STOCKTON  MOCLDY    69  67  93 NW5       30.14R
GUAD PASS      CLOUDY    62  62 100 NE24      30.27S FOG
HOBBS          PTCLDY    66  66 100 N9        30.21S
MARFA          CLOUDY   N/A N/A N/A NE6       30.24R
MIDLAND AIRPK  MOCLDY    72  66  83 N7        30.16R
MIDLAND INTL   LGT RAIN  73  68  84 VRB5      30.16R
ODESSA         LGT RAIN  71  66  84 NE12      30.17R
PECOS          CLOUDY    70  67  92 NW5       30.13R
PRESIDIO       FAIR      76  65  69 N3        30.09R
SEMINOLE       CLOUDY    67  66  97 CALM      30.20S
SNYDER           N/A     76  68  76 NE7       30.15R
WINK           PTCLDY    70  68  93 N7        30.12R
$$
...OTHER STATIONS IN TEXAS...

CITY           SKY/WX    TMP DP  RH WIND       PRES   REMARKS
ABILENE        CLEAR     75  68  78 E3        30.09S
AMARILLO       PTCLDY    65  63  93 NE5       30.24R
AUSTIN         CLOUDY    78  72  81 NE5       29.98R
BROWNSVILLE    CLEAR     82  76  81 E8        29.88R
CORPUS CHRISTI MOCLDY    78  76  93 NE6       29.92S
DALLAS FTW     MOCLDY    84  70  62 CALM      30.01R
DEL RIO        CLOUDY    75  73  93 NW3       30.02R
EL PASO        MOCLDY    71  63  75 E7        30.17R
HOUSTON INT    CLOUDY    82  73  74 CALM      29.94R
LUBBOCK        RAIN      66  65  96 N5        30.21S FOG
SAN ANGELO     CLOUDY    78  68  71 CALM      30.08R
SAN ANTONIO    CLOUDY    79  71  76 CALM      30.00R
WACO           PTCLDY    78  72  81 NW5       30.00R
WICHITA FALLS  NOT AVBL
$$
...OTHER LOCATIONS IN NEW MEXICO...

CITY           SKY/WX    TMP DP  RH WIND       PRES   REMARKS
ALAMAGORDO     CLOUDY    73  57  56 CALM      30.18R
ALBUQUERQUE    PTCLDY    68  55  63 SE17G26   30.28R
CANNON AFB     DRIZZLE   65  65 100 E8        30.26R
CLOVIS         CLOUDY    64  61  88 E5        30.26R
HOLLOMAN AFB   CLOUDY    75  57  54 W10       30.15R
ROSWELL        MOCLDY    67  63  87 E3        30.22R
RUIDOSO          N/A     57  55  94 SE7       30.41R
SANTA FE       CLOUDY    62  54  74 S15       30.34R
TRUTH OR CONSE MOCLDY    73  54  51 E3        30.21R
TUCUMCARI      CLOUDY    66  64  93 NW3       30.25R
$$

USA.gov is the U.S. government's official web portal to all federal, state and local government web resources and services.